Home > Weather > Regensburg > Past weeks

Flag for Germany Weather for the Past 2 Weeks in Regensburg, Bavaria, Germany

Now
66 °F

Sunny.


Feels Like: 66 °F
Forecast: 47 / 70 °F
Wind: 13 mph from Southeast

Location: Hohenfels

Current Time: May 6, 2016 at 12:19:14 PM

Latest Report: May 6, 2016 at 11:58 AM


Visibility: N/A

Pressure: 30.08 "Hg

Humidity: 40%

Dew Point: 41 °F

Location of RegensburgLocation

Historic Weather in Regensburg — Graph

°F

Regensburg Temperature Yesterday

Maximum temperature yesterday: 63 °F (at 4:58 PM)
Minimum temperature yesterday: 39 °F (at 12:58 AM)
Average temperature yesterday: 51 °F

High & Low Weather Summary for the Past Weeks

 TemperatureHumidityPressure
High66 °F (Apr 21, 5:58 PM)100% (Apr 23, 4:58 PM)30.40 "Hg (Apr 23, 4:58 PM)
Low28 °F (Apr 28, 2:58 AM)26% (Apr 30, 4:58 PM)29.57 "Hg (Apr 26, 6:00 AM)
Average45 °F71%30.00 "Hg
* Reported Apr 21 10:58 AM — May 6 10:58 AM, Regensburg, Weather by CustomWeather, © 2016

Note: Actual official high and low records may vary slightly from our data, if they occured in-between our weather recording intervals... More about our weather records

Advertising

Regensburg Weather History for the Previous 24 Hours

Scroll right to see more
 ConditionsComfort  
Time TempWeatherWind HumidityBarometerVisibility
10:58 AM
Fri, May 6
63 °FSunny.10 mph56%30.09 "HgN/A
9:58 AM61 °FSunny.9 mph59%30.10 "HgN/A
8:58 AM55 °FSunny.3 mph67%30.11 "HgN/A
7:58 AM50 °FSunny.1 mph82%30.11 "HgN/A
6:58 AM39 °FSunny.No wind100%30.13 "HgN/A
5:58 AM37 °FClear.2 mph100%30.13 "HgN/A
4:58 AM39 °FClear.No wind100%30.13 "HgN/A
3:58 AM39 °FClear.No wind100%30.14 "HgN/A
2:58 AM39 °FClear.1 mph100%30.16 "HgN/A
1:58 AM41 °FClear.1 mph100%30.15 "HgN/A
12:58 AM41 °FClear.5 mph100%30.17 "HgN/A
11:58 PM
Thu, May 5
43 °FClear.5 mph93%30.18 "HgN/A
10:58 PM46 °FClear.5 mph87%30.19 "HgN/A
9:58 PM50 °FClear.3 mph82%30.18 "HgN/A
8:58 PM55 °FSunny.3 mph67%30.18 "HgN/A
7:58 PM59 °FSunny.6 mph59%30.18 "HgN/A
6:58 PM61 °FScattered clouds.8 mph55%30.19 "HgN/A
5:58 PM63 °FPassing clouds.6 mph52%30.19 "HgN/A
4:58 PM63 °FScattered clouds.9 mph52%30.21 "HgN/A
3:58 PM61 °FPartly sunny.10 mph52%30.23 "HgN/A
2:58 PM61 °FPartly sunny.13 mph52%30.25 "HgN/A
1:58 PM61 °FPartly sunny.9 mph52%30.28 "HgN/A
12:58 PM57 °FScattered clouds.5 mph59%30.30 "HgN/A
Weather by CustomWeather, © 2016

See weather overviewHow to use our weather pages